Regional Weather Roundup
Issued by NWS

Home | Current Version | Previous Version | Graphics & Text | Print | Product List | Glossary On
Versions: 1 2 3 4 5 6 7 8 9 10 11 12 13 14 15 16 17 18 19 20 21 22 23 24 25 26 27 28 29 30 31 32 33 34 35 36 37 38 39 40 41 42 43 44 45 46 47 48 49 50
228
ASUS45 KTFX 280010
RWRMT
MONTANA REGIONAL WEATHER ROUNDUP
NATIONAL WEATHER SERVICE GREAT FALLS MT
600 PM MDT FRI MAY 27 2016

NOTE: "FAIR" INDICATES FEW OR NO CLOUDS BELOW 12000 FEET WITH NO
SIGNIFICANT WEATHER AND/OR OBSTRUCTIONS TO VISIBILITY.

MTZ001>007-043-280100-
WEST OF THE DIVIDE

CITY           SKY/WX    TMP DP  RH WIND       PRES   REMARKS
KALISPELL      MOSUNNY   61  34  36 W12G20    29.91S
MISSOULA       CLOUDY    57  38  48 N8        29.95R
BUTTE          CLOUDY    49  38  65 N13       29.95S
MULLAN PASS    PTSUNNY   40  29  64 VRB3      30.00S
ANACONDA         N/A     46  43  87 SE3       29.96R
DEER LODGE       N/A     52  39  62 NE5       29.96S
EUREKA           N/A     54  37  54 SE6         N/A
HAMILTON         N/A     57  34  41 W13G18    29.95R
LIBBY            N/A     57  34  41 W8        29.96F
$$

MTZ008-052>055-280100-
SOUTHWEST MONTANA

CITY           SKY/WX    TMP DP  RH WIND       PRES   REMARKS
BOZEMAN        RAIN      50  46  86 W14       29.92R FOG
DILLON         CLOUDY    52  38  58 N7        29.91R
W YELLOWSTONE  CLOUDY    46  39  76 SW3       29.96F
ENNIS          CLOUDY    48  43  81 W7        29.99R
$$

MTZ009-010-012-014-046-048-049-054-280100-
EAST SLOPES AND CENTRAL MONTANA

CITY           SKY/WX    TMP DP  RH WIND       PRES   REMARKS
CUT BANK       PTSUNNY   59  34  39 SW18G29   29.86R
GREAT FALLS    CLOUDY    59  40  49 N15       29.85R
MALMSTROM AFB  LGT RAIN  58  45  61 NW14G24   29.84R
HELENA         CLOUDY    55  40  56 S9        29.91S
CHOTEAU          N/A     57  36  44 W9        29.87R
$$

MTZ011-013-016-021-045-047-050-051-280100-
NORTH CENTRAL MONTANA

CITY           SKY/WX    TMP DP  RH WIND       PRES   REMARKS
HAVRE          CLOUDY    65  50  58 E12       29.79S
LEWISTOWN      MOSUNNY   60  42  51 E10       29.84F
N BAR RANCH    PTSUNNY   59  43  55 E12       29.86F
CHINOOK          N/A     63  46  55 SE10      29.81S
$$

MTZ017>020-022>027-061-062-280100-
NORTHEAST MONTANA

CITY           SKY/WX    TMP DP  RH WIND       PRES   REMARKS
GLASGOW        PTSUNNY   69  46  43 E5        29.80F
JORDAN           N/A     66  47  50 S3        29.80F
SIDNEY         CLOUDY    66  48  52 NE7       29.81S
WOLF POINT     MOSUNNY   71  48  43 E10       29.81S
PLENTYWOOD       N/A     64  52  63 NE18      29.84S
POPLAR           N/A     66  46  48 E7        29.82S
$$

MTZ028>42-056>058-280100-
SOUTHCENTRAL AND SOUTHEAST MONTANA

CITY           SKY/WX    TMP DP  RH WIND       PRES   REMARKS
BAKER          MOSUNNY   67  45  45 VRB6      29.82S
BILLINGS       TSTM      58  50  75 NE13G25   29.88R
LIVINGSTON     LGT RAIN  51  44  77 W24G30    29.87R
MILES CITY     CLOUDY    68  47  46 NE8       29.80F
FORSYTH          N/A     66  48  52 E9        29.79F
$$

REGIONAL REPORTS...DAKOTAS

CITY           SKY/WX    TMP DP  RH WIND       PRES   REMARKS
WILLISTON      PTSUNNY   66  51  58 NE13      29.83S
MINOT          SUNNY     72  49  44 VRB5      29.80S
DICKINSON      CLOUDY    65  43  44 E8        29.79S
BEACH          CLOUDY    64  43  45 SE6       29.84S
CROSBY           N/A     59  59 100 E13       29.87S
WATFORD CITY     N/A     64  50  59 E6        29.82S
BISMARCK       MOSUNNY   69  47  45 CALM      29.78F
GRAND FORKS    MOSUNNY   74  54  49 N9        29.75S
FARGO          CLOUDY    63  60  90 W6        29.75F
BUFFALO SD       N/A     64  46  52 SE5       29.76S
RAPID CITY     MOSUNNY   61  48  62 SE8       29.83F
$$

REGIONAL REPORTS...WYOMING/IDAHO/WASHINGTON

CITY           SKY/WX    TMP DP  RH WIND       PRES   REMARKS
GILLETTE       SUNNY     67  42  40 NE8       29.84F
SHERIDAN       CLOUDY    63  49  60 S8        29.82F
BUFFALO WY     CLOUDY    54  43  66 W15       29.89S
CODY           CLOUDY    59  46  63 NE9       29.83S
YELLOWSTONE LA   N/A     46  33  60 W16G29    30.01R
IDAHO FALLS    PTSUNNY   63  33  32 SW17G25   29.88S
SALMON         CLOUDY    54  43  66 CALM      29.92R
BOISE          SUNNY     68  30  24 N13G18    29.92F
SPOKANE        MOSUNNY   61  26  26 SW17G25   29.97S
$$

REGIONAL REPORTS...ALBERTA

CITY           SKY/WX    TMP DP  RH WIND       PRES   REMARKS
CALGARY        PTSUNNY   52  43  71 N13       29.78F
LETHBRIDGE     PTSUNNY   63  34  34 W21G28    29.81R
MEDICINE HAT   CLOUDY    61  50  67 E6        29.78S
WATERTON GATE    N/A     55  27  33 SW12G21     N/A
CARDSTON         N/A     57  36  44 SW9         N/A
$$

REGIONAL REPORTS...SASKATCHEWAN

CITY           SKY/WX    TMP DP  RH WIND       PRES   REMARKS
SWIFT CURRENT  CLOUDY    63  46  55 E16G23    29.83R
REGINA         PTSUNNY   68  48  49 E18G25    29.86S
SASKATOON      PTSUNNY   64  54  68 NE13      29.87F
CYPRESS HILLS    N/A     57  41  54 SE8         N/A
VAL MARIE        N/A     64  45  48 E10         N/A
ROCKGLEN         N/A     57  50  77 NE2         N/A
ASSINIBOIA       N/A     64  55  72 SE8         N/A
$$




USA.gov is the U.S. government's official web portal to all federal, state and local government web resources and services.